User: anonymous   Login
Location: ??????
(38.3184°N, 23.6932°E)
Time: 20:31:36
(UTC+00:00)
Language:

Cosmos 1980 Rocket - Orbit

View from above orbital plane
View from above orbital plane
View from above satellite
View from above satellite

Ground track
Ground track

The orbit data is extracted from the following two-line orbital elements,

1 19650U 88102B   22016.91619335 -.00000256  00000-0 -10579-3 0  9998
2 19650  71.0002  93.5077 0013397 163.4115 196.7449 14.15815747713035
Epoch (UTC): 16 January 2022 21:59:19
Eccentricity: 0.0013397
inclination: 71.0002°
perigee height: 830 km
apogee height: 849 km
right ascension of ascending node: 93.5077°
argument of perigee: 163.4115°
revolutions per day: 14.15815747
mean anomaly at epoch: 196.7449°
orbit number at epoch: 71303

The dashed part of the orbit path shows where the satellite is in the earth's shadow,  

DLR